• In Hungary
  • List of Countries
  • For 7 days
  • Water Temperature
  • Satellite Maps
  • Weather Map
  • News
  • Weather Widgets
  • user-avatar
    Login

    Hourly Weather Mol

    Today, 12 December, Tuesday

    Time Temperature Precipitation Wind Pressure Humidity
    00:00 -1°C° 0.3 mm 6 mps 739 mmHg 93%
    01:00 -1°C° 0.2 mm 6 mps 740 mmHg 92%
    02:00 0°C° 0.2 mm 5 mps 742 mmHg 90%
    03:00 0°C° 0.2 mm 5 mps 744 mmHg 89%
    04:00 0°C° 0.1 mm 5 mps 745 mmHg 88%
    05:00 0°C° 0.1 mm 4 mps 746 mmHg 88%
    06:00 0°C° 0.1 mm 4 mps 748 mmHg 88%
    07:00 0°C° 0.2 mm 4 mps 749 mmHg 89%
    08:00 0°C° 0.2 mm 4 mps 750 mmHg 90%
    09:00 0°C° 0.2 mm 5 mps 751 mmHg 91%
    10:00 0°C° 0.2 mm 5 mps 752 mmHg 93%
    11:00 0°C° 0.2 mm 4 mps 753 mmHg 94%
    12:00 0°C° 0.2 mm 4 mps 754 mmHg 95%
    13:00 0°C° 0.1 mm 4 mps 754 mmHg 94%
    14:00 0°C° 0.1 mm 4 mps 755 mmHg 94%
    15:00 0°C° 0.1 mm 4 mps 756 mmHg 93%
    16:00 -1°C° 0 mm 4 mps 756 mmHg 93%
    17:00 -1°C° 0 mm 4 mps 757 mmHg 92%
    18:00 -1°C° 0 mm 4 mps 757 mmHg 91%
    19:00 -1°C° 0 mm 4 mps 758 mmHg 90%
    20:00 -1°C° 0 mm 4 mps 758 mmHg 90%
    21:00 -2°C° 0 mm 4 mps 758 mmHg 89%
    22:00 -1°C° 0 mm 5 mps 758 mmHg 89%
    23:00 -1°C° 0 mm 5 mps 758 mmHg 88%

    Tomorrow, 13 December, Wednesday

    Time Temperature Precipitation Wind Pressure Humidity
    00:00 -2°C° 0 mm 6 mps 757 mmHg 88%
    01:00 -1°C° 0 mm 6 mps 757 mmHg 88%
    02:00 -1°C° 0 mm 7 mps 756 mmHg 88%
    03:00 -1°C° 0 mm 7 mps 756 mmHg 88%
    04:00 0°C° 0.1 mm 7 mps 755 mmHg 88%
    05:00 0°C° 0.1 mm 8 mps 754 mmHg 87%
    06:00 0°C° 0.1 mm 8 mps 753 mmHg 87%
    07:00 0°C° 1.1 mm 9 mps 752 mmHg 87%
    08:00 +1°C° 1.1 mm 9 mps 752 mmHg 87%
    09:00 +1°C° 1.1 mm 10 mps 751 mmHg 87%
    10:00 +2°C° 0.9 mm 9 mps 750 mmHg 88%
    11:00 +2°C° 0.9 mm 9 mps 749 mmHg 89%
    12:00 +2°C° 0.9 mm 8 mps 749 mmHg 89%
    13:00 +2°C° 0.4 mm 8 mps 748 mmHg 90%
    14:00 +4°C° 0.4 mm 7 mps 747 mmHg 91%
    15:00 +4°C° 0.4 mm 6 mps 747 mmHg 92%
    16:00 +4°C° 0.7 mm 7 mps 746 mmHg 90%
    17:00 +5°C° 0.7 mm 8 mps 745 mmHg 89%
    18:00 +6°C° 0.7 mm 9 mps 744 mmHg 88%
    19:00 +5°C° 1.3 mm 9 mps 744 mmHg 85%
    20:00 +5°C° 1.3 mm 8 mps 744 mmHg 83%
    21:00 +5°C° 1.3 mm 8 mps 744 mmHg 80%
    22:00 +4°C° 0.2 mm 7 mps 744 mmHg 79%
    23:00 +3°C° 0.2 mm 7 mps 745 mmHg 78%

    Day after tomorrow, 14 December, Thursday

    Time Temperature Precipitation Wind Pressure Humidity
    00:00 +2°C° 0.2 mm 6 mps 745 mmHg 77%
    01:00 +2°C° 0.5 mm 7 mps 745 mmHg 74%
    02:00 +2°C° 0.5 mm 7 mps 746 mmHg 70%
    03:00 +2°C° 0.5 mm 7 mps 746 mmHg 67%
    04:00 0°C° 0 mm 7 mps 746 mmHg 67%
    05:00 +1°C° 0 mm 6 mps 746 mmHg 67%
    06:00 +1°C° 0 mm 6 mps 747 mmHg 68%
    07:00 0°C° 0 mm 7 mps 746 mmHg 70%
    08:00 0°C° 0 mm 7 mps 746 mmHg 72%
    09:00 +2°C° 0 mm 7 mps 746 mmHg 75%
    10:00 +2°C° 0.2 mm 7 mps 745 mmHg 75%
    11:00 +3°C° 0.2 mm 6 mps 745 mmHg 75%
    12:00 +3°C° 0.2 mm 6 mps 744 mmHg 76%
    13:00 +3°C° 0.2 mm 5 mps 743 mmHg 79%
    14:00 +4°C° 0.2 mm 4 mps 742 mmHg 82%
    15:00 +3°C° 0.2 mm 3 mps 741 mmHg 86%
    16:00 +3°C° 0.6 mm 3 mps 741 mmHg 84%
    17:00 +3°C° 0.6 mm 4 mps 741 mmHg 83%
    18:00 +3°C° 0.6 mm 4 mps 741 mmHg 81%
    19:00 +1°C° 0.2 mm 4 mps 741 mmHg 80%
    20:00 +1°C° 0.2 mm 4 mps 742 mmHg 79%
    21:00 +1°C° 0.2 mm 5 mps 742 mmHg 77%
    22:00 +1°C° 0 mm 5 mps 743 mmHg 78%
    23:00 0°C° 0 mm 5 mps 743 mmHg 78%

    15 December, Friday

    Time Temperature Precipitation Wind Pressure Humidity
    00:00 0°C° 0 mm 5 mps 743 mmHg 79%
    01:00 -1°C° 0.3 mm 6 mps 743 mmHg 80%
    02:00 +1°C° 0.3 mm 6 mps 742 mmHg 82%
    03:00 0°C° 0.3 mm 7 mps 742 mmHg 83%
    04:00 0°C° 0.3 mm 7 mps 742 mmHg 83%
    05:00 0°C° 0.3 mm 7 mps 741 mmHg 83%
    06:00 0°C° 0.3 mm 7 mps 741 mmHg 83%
    07:00 +2°C° 0.1 mm 7 mps 741 mmHg 84%
    08:00 +2°C° 0.1 mm 6 mps 741 mmHg 85%
    09:00 +2°C° 0.1 mm 6 mps 741 mmHg 86%
    10:00 +2°C° 0.1 mm 6 mps 741 mmHg 84%
    11:00 +3°C° 0.1 mm 5 mps 741 mmHg 83%
    12:00 +3°C° 0.1 mm 5 mps 741 mmHg 82%
    13:00 +4°C° 0.1 mm 4 mps 742 mmHg 82%
    14:00 +4°C° 0.1 mm 4 mps 742 mmHg 83%
    15:00 +3°C° 0.1 mm 3 mps 743 mmHg 83%
    16:00 +3°C° 0.1 mm 3 mps 743 mmHg 86%
    17:00 +2°C° 0.1 mm 3 mps 744 mmHg 88%
    18:00 +2°C° 0.1 mm 3 mps 745 mmHg 90%
    19:00 +1°C° 0 mm 3 mps 746 mmHg 91%
    20:00 +1°C° 0 mm 3 mps 747 mmHg 92%
    21:00 +1°C° 0 mm 3 mps 748 mmHg 93%
    22:00 +1°C° 0 mm 3 mps 748 mmHg 93%
    23:00 +2°C° 0 mm 2 mps 749 mmHg 93%

    16 December, Saturday

    Time Temperature Precipitation Wind Pressure Humidity
    00:00 +2°C° 0 mm 2 mps 749 mmHg 92%
    01:00 +2°C° 0 mm 2 mps 750 mmHg 92%
    02:00 +2°C° 0 mm 2 mps 750 mmHg 91%
    03:00 +2°C° 0 mm 2 mps 751 mmHg 91%
    04:00 +2°C° 0.1 mm 2 mps 751 mmHg 91%
    05:00 +1°C° 0.1 mm 3 mps 752 mmHg 91%
    06:00 +1°C° 0.1 mm 3 mps 752 mmHg 92%
    07:00 +1°C° 0.2 mm 3 mps 753 mmHg 91%
    08:00 +2°C° 0.2 mm 3 mps 753 mmHg 91%
    09:00 +2°C° 0.2 mm 3 mps 754 mmHg 91%
    10:00 +3°C° 0.2 mm 3 mps 754 mmHg 88%
    11:00 +3°C° 0.2 mm 4 mps 754 mmHg 85%
    12:00 +4°C° 0.2 mm 4 mps 755 mmHg 82%
    13:00 +4°C° 0.2 mm 4 mps 755 mmHg 81%
    14:00 +4°C° 0.2 mm 4 mps 755 mmHg 81%
    15:00 +3°C° 0.2 mm 4 mps 755 mmHg 80%
    16:00 +3°C° 0.1 mm 4 mps 756 mmHg 81%
    17:00 +1°C° 0.1 mm 4 mps 756 mmHg 82%
    18:00 0°C° 0.1 mm 4 mps 757 mmHg 83%
    19:00 0°C° 0.1 mm 4 mps 757 mmHg 83%
    20:00 0°C° 0.1 mm 4 mps 757 mmHg 83%
    21:00 0°C° 0.1 mm 4 mps 757 mmHg 84%
    22:00 0°C° 0.3 mm 4 mps 757 mmHg 85%
    23:00 0°C° 0.3 mm 4 mps 757 mmHg 87%

    17 December, Sunday

    Time Temperature Precipitation Wind Pressure Humidity
    00:00 +1°C° 0.3 mm 4 mps 757 mmHg 88%
    01:00 +1°C° 0.5 mm 4 mps 757 mmHg 88%
    02:00 +1°C° 0.5 mm 4 mps 757 mmHg 87%
    03:00 +1°C° 0.5 mm 3 mps 757 mmHg 87%
    04:00 +1°C° 0.4 mm 3 mps 757 mmHg 88%
    05:00 +1°C° 0.4 mm 3 mps 757 mmHg 88%
    06:00 +1°C° 0.4 mm 3 mps 757 mmHg 89%
    07:00 +1°C° 0 mm 3 mps 757 mmHg 88%
    08:00 +1°C° 0 mm 3 mps 757 mmHg 87%
    09:00 +2°C° 0 mm 2 mps 758 mmHg 87%
    10:00 +1°C° 0 mm 3 mps 758 mmHg 84%
    11:00 +2°C° 0 mm 3 mps 758 mmHg 81%
    12:00 +3°C° 0 mm 3 mps 758 mmHg 78%
    13:00 +3°C° 0.1 mm 3 mps 758 mmHg 79%
    14:00 +2°C° 0.1 mm 3 mps 758 mmHg 81%
    15:00 +2°C° 0.1 mm 3 mps 759 mmHg 83%
    16:00 +1°C° 0.2 mm 3 mps 759 mmHg 85%
    17:00 +1°C° 0.2 mm 3 mps 760 mmHg 86%
    18:00 +1°C° 0.2 mm 3 mps 760 mmHg 88%
    19:00 0°C° 0.1 mm 3 mps 760 mmHg 88%
    20:00 0°C° 0.1 mm 3 mps 761 mmHg 89%
    21:00 0°C° 0.1 mm 3 mps 761 mmHg 89%
    22:00 0°C° 0 mm 3 mps 761 mmHg 89%
    23:00 -1°C° 0 mm 2 mps 761 mmHg 89%
    Show more